User: anonymous   Login
Location: Unspecified
(0.0000°N, 0.0000°E)
Time: 19:04:54
(UTC+00:00)
Language:

STARLINK-3311 - Orbit

View from above orbital plane
View from above orbital plane
View from above satellite
View from above satellite

Ground track
Ground track

The orbit is defined by the following mean orbital elements,

1 50849U          26145.50716781 +.00000000 +00000-0 -79934-4 0 00009
2 50849  53.2100 194.2748 0001270  90.6620 269.4518 15.08844943    08
Epoch (UTC): 25 May 2026 12:10:19
Eccentricity: 0.0001270
inclination: 53.2100°
perigee height: 539 km
apogee height: 541 km
right ascension of ascending node: 194.2748°
argument of perigee: 90.6620°
revolutions per day: 15.08844943
mean anomaly at epoch: 269.4518°

The dashed part of the orbit path shows where the satellite is in the earth's shadow,  

DLR